Weather History for KD07 - August, 2013

Change the Weather History Date:

Thursday, August 29, 2013

  Actual Average Record
Temperature  
Mean Temperature 80 °F 69 °F  
Max Temperature 95 °F 83 °F 107 °F (2012)
Min Temperature 65 °F 55 °F 48 °F (2007)
Degree Days  
Heating Degree Days 0 2  
Month to date heating degree days 2 14  
Since 1 June heating degree days 88 116  
Since 1 July heating degree days 15 26  
Cooling Degree Days 15 5  
Month to date cooling degree days 210 221  
Year to date cooling degree days 568 566  
Since 1 June cooling degree days 555 554  
Growing Degree Days 30 (Base 50)    
Moisture  
Dew Point 62 °F    
Average Humidity 61    
Maximum Humidity 93    
Minimum Humidity 28    
Precipitation  
Precipitation 0.00 in 0.06 in 1.08 in (1999)
Month to date precipitation 1.90 1.52  
Year to date precipitation 12.37 13.71  
Sea Level Pressure  
Sea Level Pressure 29.92 in    
Wind  
Wind Speed 10 mph (North)    
Max Wind Speed 22 mph    
Max Gust Speed 29 mph    
T = Trace of Precipitation, MM = Missing Value Source: NWS Daily Summary

Daily Weather History Graph

Daily Weather History Graph

Search for Another Location

Airport or City:

Trip Planner

Search our weather history database for the weather conditions in past years. The results will help you decide how hot, cold, wet, or windy it might be!

Date:

Astronomy

Aug. 29, 2013 Rise Set
Actual Time 6:06 AM MDT 7:30 PM MDT
Civil Twilight 5:36 AM MDT 8:00 PM MDT
Nautical Twilight 4:59 AM MDT 8:37 PM MDT
Astronomical Twilight 4:19 AM MDT 9:16 PM MDT
Moon No Moon Rise 3:08 PM MDT (8/29)
Length of Visible Light 14h 24m
Length of Day
13h 23m
Last Quarter, 37% of the Moon is Illuminated
Aug 29
Last Quarter
Sep 5
New
Sep 12
First Quarter
Sep 19
Full
Sep 26
Last Quarter

Hourly Weather History & Observations

Time (MDT) Temp. Heat Index Dew Point Humidity Pressure Visibility Wind Dir Wind Speed Gust Speed Precip Events Conditions
12:56 AM 72.0 °F - 66.0 °F 81% 29.84 in - SE 12.7 mph - N/A   Unknown
1:56 AM 70.0 °F - 66.0 °F 87% 29.81 in - SE 10.4 mph - N/A   Unknown
2:56 AM 68.0 °F - 66.0 °F 93% 29.83 in - South 16.1 mph - N/A   Unknown
3:56 AM 66.0 °F - 64.9 °F 96% 29.85 in - South 6.9 mph - N/A   Unknown
4:56 AM 68.0 °F - 64.9 °F 90% 29.85 in - South 10.4 mph - N/A   Unknown
5:56 AM 66.0 °F - 64.0 °F 93% 29.87 in - SW 5.8 mph - N/A   Unknown
6:56 AM 66.0 °F - 63.0 °F 90% 29.88 in - WNW 4.6 mph - N/A   Unknown
7:56 AM 73.9 °F - 64.0 °F 71% 29.89 in - WNW 8.1 mph - N/A   Unknown
8:56 AM 81.0 °F 83.0 °F 66.0 °F 60% 29.90 in - NW 10.4 mph - N/A   Unknown
9:56 AM 82.9 °F 85.0 °F 66.0 °F 56% 29.92 in - NW 18.4 mph 24.2 mph N/A   Unknown
10:56 AM 87.1 °F 89.2 °F 66.0 °F 49% 29.92 in - NW 17.3 mph 24.2 mph N/A   Unknown
11:56 AM 91.0 °F 91.9 °F 63.0 °F 39% 29.93 in - North 16.1 mph 24.2 mph N/A   Unknown
12:56 PM 91.9 °F 91.8 °F 61.0 °F 35% 29.93 in - NNW 13.8 mph 23.0 mph N/A   Unknown
1:56 PM 93.0 °F 92.7 °F 60.1 °F 33% 29.93 in - NNW 12.7 mph 24.2 mph N/A   Unknown
2:56 PM 93.9 °F 92.2 °F 55.9 °F 28% 29.93 in - NNW 10.4 mph 26.5 mph N/A   Unknown
3:56 PM 91.9 °F 91.2 °F 59.0 °F 33% 29.93 in - North 13.8 mph 21.9 mph N/A   Unknown
4:56 PM 91.0 °F 90.2 °F 59.0 °F 34% 29.94 in - North 10.4 mph - N/A   Unknown
5:56 PM 89.1 °F 88.2 °F 59.0 °F 36% 29.94 in - North 11.5 mph - N/A   Unknown
6:56 PM 86.0 °F 85.7 °F 60.1 °F 41% 29.96 in - NE 9.2 mph - N/A   Unknown
7:56 PM 78.1 °F - 61.0 °F 56% 29.98 in - NE 6.9 mph - N/A   Unknown
8:56 PM 75.9 °F - 61.0 °F 60% 29.98 in - ENE 5.8 mph - N/A   Unknown
9:56 PM 73.9 °F - 60.1 °F 62% 29.98 in - NE 5.8 mph - N/A   Unknown
10:56 PM 73.0 °F - 60.1 °F 64% 29.99 in - NE 4.6 mph - N/A   Unknown
11:56 PM 70.0 °F - 61.0 °F 73% 29.99 in - NE 4.6 mph - N/A   Unknown